Hourly Weather Klatki

Today, 25 July, Sunday

Time Temperature Precipitation Wind Pressure Humidity
00:00 +20°C° 0 mm 3 mps 743 mmHg 66%
01:00 +20°C° 0 mm 3 mps 743 mmHg 64%
02:00 +20°C° 0 mm 3 mps 743 mmHg 65%
03:00 +20°C° 0 mm 3 mps 743 mmHg 65%
04:00 +19°C° 0 mm 3 mps 743 mmHg 65%
05:00 +20°C° 0 mm 3 mps 743 mmHg 65%
06:00 +21°C° 0 mm 3 mps 744 mmHg 65%
07:00 +22°C° 0 mm 3 mps 744 mmHg 65%
08:00 +24°C° 0 mm 3 mps 744 mmHg 59%
09:00 +26°C° 0 mm 4 mps 744 mmHg 54%
10:00 +28°C° 0 mm 4 mps 744 mmHg 48%
11:00 +29°C° 0 mm 4 mps 744 mmHg 43%
12:00 +30°C° 0 mm 4 mps 744 mmHg 38%
13:00 +32°C° 0 mm 4 mps 744 mmHg 34%
14:00 +30°C° 0 mm 4 mps 743 mmHg 40%
15:00 +28°C° 0 mm 3 mps 743 mmHg 46%
16:00 +27°C° 0 mm 3 mps 743 mmHg 52%
17:00 +26°C° 0 mm 3 mps 743 mmHg 56%
18:00 +25°C° 0 mm 3 mps 743 mmHg 60%
19:00 +24°C° 0 mm 2 mps 743 mmHg 64%
20:00 +24°C° 0 mm 3 mps 743 mmHg 65%
21:00 +23°C° 0 mm 4 mps 743 mmHg 66%
22:00 +23°C° 0 mm 4 mps 743 mmHg 67%
23:00 +22°C° 0.1 mm 4 mps 743 mmHg 71%

Tomorrow, 26 July, Monday

Time Temperature Precipitation Wind Pressure Humidity
00:00 +21°C° 0.1 mm 4 mps 742 mmHg 75%
01:00 +21°C° 0.1 mm 4 mps 742 mmHg 79%
02:00 +21°C° 0 mm 4 mps 742 mmHg 77%
03:00 +20°C° 0 mm 4 mps 742 mmHg 76%
04:00 +20°C° 0 mm 4 mps 742 mmHg 75%
05:00 +20°C° 0 mm 4 mps 742 mmHg 74%
06:00 +21°C° 0 mm 4 mps 742 mmHg 74%
07:00 +21°C° 0 mm 4 mps 742 mmHg 73%
08:00 +23°C° 0 mm 4 mps 742 mmHg 67%
09:00 +26°C° 0 mm 5 mps 743 mmHg 60%
10:00 +28°C° 0 mm 5 mps 743 mmHg 54%
11:00 +29°C° 0 mm 5 mps 743 mmHg 52%
12:00 +30°C° 0 mm 5 mps 742 mmHg 49%
13:00 +32°C° 0 mm 5 mps 742 mmHg 47%
14:00 +30°C° 0 mm 5 mps 742 mmHg 48%
15:00 +30°C° 0 mm 4 mps 742 mmHg 50%
16:00 +30°C° 0 mm 4 mps 741 mmHg 51%
17:00 +28°C° 0.6 mm 4 mps 741 mmHg 61%
18:00 +27°C° 0.6 mm 3 mps 741 mmHg 71%
19:00 +25°C° 0.6 mm 2 mps 741 mmHg 81%
20:00 +24°C° 0.7 mm 2 mps 742 mmHg 84%
21:00 +23°C° 0.7 mm 1 mps 742 mmHg 88%
22:00 +22°C° 0.7 mm 1 mps 742 mmHg 92%
23:00 +21°C° 0 mm 1 mps 742 mmHg 92%

Day after tomorrow, 27 July, Tuesday

Time Temperature Precipitation Wind Pressure Humidity
00:00 +21°C° 0 mm 1 mps 742 mmHg 92%
01:00 +21°C° 0 mm 1 mps 742 mmHg 92%
02:00 +21°C° 0.2 mm 1 mps 742 mmHg 92%
03:00 +20°C° 0.2 mm 2 mps 742 mmHg 92%
04:00 +20°C° 0.2 mm 2 mps 742 mmHg 92%
05:00 +21°C° 0.6 mm 2 mps 742 mmHg 88%
06:00 +23°C° 0.6 mm 2 mps 742 mmHg 84%
07:00 +24°C° 0.6 mm 2 mps 742 mmHg 80%
08:00 +25°C° 0 mm 3 mps 742 mmHg 74%
09:00 +27°C° 0 mm 3 mps 742 mmHg 68%
10:00 +28°C° 0 mm 3 mps 742 mmHg 63%
11:00 +28°C° 0.2 mm 4 mps 743 mmHg 63%
12:00 +28°C° 0.2 mm 4 mps 743 mmHg 64%
13:00 +28°C° 0.2 mm 5 mps 743 mmHg 64%
14:00 +28°C° 0.1 mm 4 mps 743 mmHg 63%
15:00 +28°C° 0.1 mm 4 mps 743 mmHg 61%
16:00 +28°C° 0.1 mm 4 mps 743 mmHg 59%
17:00 +27°C° 0 mm 3 mps 743 mmHg 64%
18:00 +26°C° 0 mm 3 mps 743 mmHg 70%
19:00 +24°C° 0 mm 2 mps 743 mmHg 75%
20:00 +23°C° 0 mm 2 mps 744 mmHg 77%
21:00 +22°C° 0 mm 1 mps 744 mmHg 80%
22:00 +21°C° 0 mm 1 mps 744 mmHg 82%
23:00 +21°C° 0 mm 1 mps 744 mmHg 83%

28 July, Wednesday

Time Temperature Precipitation Wind Pressure Humidity
00:00 +21°C° 0 mm 1 mps 744 mmHg 84%
01:00 +20°C° 0 mm 1 mps 745 mmHg 85%
02:00 +20°C° 0 mm 1 mps 744 mmHg 86%
03:00 +20°C° 0 mm 1 mps 744 mmHg 87%
04:00 +19°C° 0 mm 2 mps 744 mmHg 89%
05:00 +21°C° 0 mm 2 mps 744 mmHg 83%
06:00 +23°C° 0 mm 1 mps 744 mmHg 78%
07:00 +25°C° 0 mm 1 mps 744 mmHg 72%
08:00 +26°C° 0 mm 1 mps 744 mmHg 66%
09:00 +28°C° 0 mm 1 mps 744 mmHg 59%
10:00 +29°C° 0 mm 1 mps 744 mmHg 52%
11:00 +30°C° 0 mm 1 mps 743 mmHg 48%
12:00 +31°C° 0 mm 2 mps 743 mmHg 45%
13:00 +32°C° 0 mm 2 mps 743 mmHg 41%
14:00 +32°C° 0 mm 2 mps 743 mmHg 43%
15:00 +32°C° 0 mm 2 mps 742 mmHg 45%
16:00 +32°C° 0 mm 1 mps 742 mmHg 46%
17:00 +29°C° 0.4 mm 2 mps 742 mmHg 59%
18:00 +27°C° 0.4 mm 2 mps 742 mmHg 71%
19:00 +24°C° 0.4 mm 3 mps 742 mmHg 84%
20:00 +23°C° 0.3 mm 2 mps 742 mmHg 87%
21:00 +23°C° 0.3 mm 2 mps 742 mmHg 89%
22:00 +22°C° 0.3 mm 1 mps 742 mmHg 92%
23:00 +22°C° 0.1 mm 1 mps 742 mmHg 92%

29 July, Thursday

Time Temperature Precipitation Wind Pressure Humidity
00:00 +21°C° 0.1 mm 2 mps 742 mmHg 92%
01:00 +21°C° 0.1 mm 2 mps 742 mmHg 93%
02:00 +20°C° 0 mm 2 mps 742 mmHg 93%
03:00 +19°C° 0 mm 2 mps 743 mmHg 94%
04:00 +19°C° 0 mm 3 mps 743 mmHg 95%
05:00 +20°C° 0 mm 3 mps 743 mmHg 90%
06:00 +20°C° 0 mm 3 mps 744 mmHg 85%
07:00 +21°C° 0 mm 3 mps 744 mmHg 80%
08:00 +24°C° 0 mm 3 mps 744 mmHg 72%
09:00 +25°C° 0 mm 3 mps 744 mmHg 65%
10:00 +27°C° 0 mm 2 mps 744 mmHg 58%
11:00 +28°C° 0 mm 2 mps 744 mmHg 53%
12:00 +29°C° 0 mm 2 mps 744 mmHg 49%
13:00 +30°C° 0 mm 2 mps 744 mmHg 45%
14:00 +31°C° 0 mm 2 mps 744 mmHg 44%
15:00 +31°C° 0 mm 2 mps 743 mmHg 42%
16:00 +31°C° 0 mm 2 mps 743 mmHg 41%
17:00 +29°C° 0 mm 1 mps 743 mmHg 47%
18:00 +28°C° 0 mm 1 mps 743 mmHg 53%
19:00 +24°C° 0 mm 0 mps 743 mmHg 59%
20:00 +25°C° 0 mm 1 mps 743 mmHg 60%
21:00 +24°C° 0 mm 1 mps 743 mmHg 62%
22:00 +24°C° 0 mm 1 mps 743 mmHg 64%
23:00 +23°C° 0 mm 2 mps 743 mmHg 66%

30 July, Friday

Time Temperature Precipitation Wind Pressure Humidity
00:00 +21°C° 0 mm 2 mps 743 mmHg 69%
01:00 +21°C° 0 mm 2 mps 742 mmHg 71%
02:00 +20°C° 0.1 mm 2 mps 742 mmHg 74%
03:00 +20°C° 0.1 mm 2 mps 742 mmHg 78%
04:00 +19°C° 0.1 mm 2 mps 742 mmHg 81%
05:00 +21°C° 0.1 mm 2 mps 743 mmHg 78%
06:00 +23°C° 0.1 mm 1 mps 743 mmHg 75%
07:00 +24°C° 0.1 mm 1 mps 743 mmHg 73%
08:00 +26°C° 0 mm 1 mps 743 mmHg 67%
09:00 +28°C° 0 mm 2 mps 742 mmHg 61%
10:00 +30°C° 0 mm 2 mps 742 mmHg 54%
11:00 +31°C° 0 mm 2 mps 742 mmHg 51%
12:00 +32°C° 0 mm 1 mps 742 mmHg 48%
13:00 +33°C° 0 mm 1 mps 742 mmHg 45%
14:00 +33°C° 0 mm 1 mps 741 mmHg 45%
15:00 +33°C° 0 mm 1 mps 741 mmHg 45%
16:00 +33°C° 0 mm 1 mps 741 mmHg 45%
17:00 +29°C° 2.6 mm 3 mps 741 mmHg 60%
18:00 +25°C° 2.6 mm 4 mps 741 mmHg 75%
19:00 +21°C° 2.6 mm 5 mps 741 mmHg 90%
20:00 +20°C° 1.7 mm 4 mps 741 mmHg 91%
21:00 +20°C° 1.7 mm 2 mps 741 mmHg 91%
22:00 +21°C° 1.7 mm 1 mps 742 mmHg 92%
23:00 +20°C° 0.2 mm 1 mps 741 mmHg 93%
Show more